Flag for Poland Weather past 2 weeks in Bytom, Poland

Now
36 °F

Light rain. Partly sunny.


Feels Like: 29 °F
Forecast: 23 / 30 °F
Wind: 8 mph from Southeast

Location: Katowice Airport

Current Time: Jan 30, 2015 at 3:19:25 PM

Latest Report: Jan 30, 2015 at 3:00 PM


Visibility: 5 mi

Pressure: 28.82 "Hg

Humidity: 87%

Dew point: 32 °F

Location of BytomLocation

Historic Weather in Bytom — Graph

°F

Bytom temperature yesterday

Maximum temperature yesterday: 36 °F (at 2:30 PM)
Minimum temperature yesterday: 28 °F (at 8:00 PM)
Average temperature yesterday: 32 °F

Past Weeks' High & Low Weather Summary

 TemperatureHumidityPressure
High52 °F (Jan 16, 1:30 PM)100% (Jan 17, 7:30 PM)30.24 "Hg (Jan 17, 7:30 PM)
Low23 °F (Jan 26, 9:00 PM)54% (Jan 16, 1:30 PM)28.80 "Hg (Jan 30, 2:00 PM)
Average34 °F90%29.89 "Hg
* Reported Jan 15 2:00 PM — Jan 30 2:00 PM, Bytom, Weather by CustomWeather, © 2014

Note: Actual official high and low records may vary slightly from our data, if they occured in-between our weather recording intervals... More about our weather records

Advertising

Bytom weather history for previous 24 hours

 ConditionsComfort  
Time TempWeatherWind HumidityBarometerVisibility
2:00 PM
Jan 30
37 °FPartly sunny.5 mph70%28.80 "HgN/A
1:30 PM39 °FPartly sunny.7 mph65%28.82 "HgN/A
1:00 PM37 °FPartly sunny.5 mph70%28.82 "HgN/A
12:30 PM37 °FPartly sunny.7 mph70%28.85 "HgN/A
12:00 PM37 °FPartly sunny.9 mph70%28.85 "HgN/A
11:30 AM37 °FPartly sunny.7 mph70%28.85 "HgN/A
11:00 AM37 °FPartly sunny.8 mph65%28.88 "HgN/A
10:30 AM36 °FPartly sunny.8 mph70%28.88 "HgN/A
10:00 AM32 °FPartly sunny.7 mph80%28.91 "HgN/A
9:30 AM32 °FPartly sunny.5 mph80%28.91 "HgN/A
9:00 AM30 °FPassing clouds.6 mph80%28.91 "HgN/A
8:30 AM30 °FSunny.6 mph80%28.91 "Hg10 mi
8:00 AM30 °FSunny.6 mph80%28.91 "Hg10 mi
7:30 AM30 °FSunny.8 mph80%28.91 "Hg10 mi
7:00 AM30 °FClear.10 mph80%28.91 "Hg10 mi
6:30 AM30 °FClear.10 mph80%28.91 "Hg10 mi
6:00 AM30 °FClear.13 mph80%28.94 "Hg10 mi
5:30 AM30 °FClear.12 mph80%28.94 "Hg10 mi
5:00 AM30 °FClear.8 mph80%28.97 "Hg10 mi
4:30 AM30 °FClear.8 mph80%29.00 "Hg10 mi
4:00 AM30 °FClear.10 mph75%29.03 "Hg10 mi
3:30 AM28 °FClear.7 mph80%29.03 "Hg5 mi
3:00 AM28 °FClear.9 mph80%29.06 "Hg5 mi
2:30 AM28 °FClear.8 mph80%29.06 "Hg5 mi
2:00 AM28 °FClear.9 mph80%29.09 "Hg5 mi
1:30 AM28 °FClear.8 mph80%29.09 "Hg5 mi
1:00 AM27 °FClear.7 mph86%29.12 "Hg5 mi
12:30 AM27 °FClear.7 mph86%29.15 "Hg5 mi
12:00 AM28 °FClear.5 mph80%29.18 "Hg5 mi
11:30 PM
Jan 29
30 °FClear.8 mph75%29.18 "Hg5 mi
11:00 PM28 °FClear.8 mph80%29.18 "Hg5 mi
10:30 PM28 °FClear.8 mph80%29.21 "Hg5 mi
10:00 PM28 °FPassing clouds.5 mph80%29.24 "HgN/A
9:30 PM28 °FPassing clouds.3 mph80%29.24 "HgN/A
9:00 PM30 °FClear.6 mph75%29.24 "Hg5 mi
8:30 PM30 °FClear.7 mph80%29.27 "Hg5 mi
8:00 PM28 °FClear.7 mph80%29.30 "Hg5 mi
7:30 PM30 °FClear.7 mph80%29.30 "Hg10 mi
7:00 PM30 °FPassing clouds.6 mph80%29.30 "HgN/A
6:30 PM32 °FPassing clouds.5 mph75%29.33 "HgN/A
6:00 PM30 °FPassing clouds.6 mph80%29.33 "HgN/A
5:30 PM32 °FPassing clouds.7 mph75%29.33 "HgN/A
5:00 PM32 °FPassing clouds.6 mph80%29.33 "HgN/A
4:30 PM32 °FPassing clouds.9 mph80%29.36 "HgN/A
4:00 PM34 °FPassing clouds.9 mph75%29.36 "HgN/A
3:30 PM34 °FScattered clouds.12 mph75%29.36 "HgN/A
3:00 PM34 °FScattered clouds.10 mph81%29.36 "HgN/A
Weather by CustomWeather, © 2014

See weather overviewHow to use our weather pages